TimeMST,TemperatureF,Dew PointF,Humidity,Sea Level PressureIn,VisibilityMPH,Wind Direction,Wind SpeedMPH,Gust SpeedMPH,PrecipitationIn,Events,Conditions,WindDirDegrees,DateUTC
12:51 AM,95.0,64.0,36,29.71,10.0,NE,5.8,-,N/A,,Partly Cloudy,40,2013-07-28 07:51:00
1:51 AM,91.9,64.9,41,29.71,10.0,ENE,8.1,-,N/A,,Partly Cloudy,60,2013-07-28 08:51:00
2:51 AM,90.0,66.0,45,29.70,10.0,ESE,8.1,-,N/A,,Clear,120,2013-07-28 09:51:00
3:51 AM,89.1,64.0,43,29.71,10.0,SE,3.5,-,N/A,,Partly Cloudy,130,2013-07-28 10:51:00
4:51 AM,88.0,64.0,45,29.71,10.0,East,6.9,-,N/A,,Partly Cloudy,100,2013-07-28 11:51:00
5:51 AM,87.1,64.9,48,29.73,10.0,East,6.9,-,N/A,,Mostly Cloudy,80,2013-07-28 12:51:00
6:51 AM,87.1,66.0,49,29.74,10.0,East,8.1,-,N/A,,Mostly Cloudy,100,2013-07-28 13:51:00
7:51 AM,89.1,64.0,43,29.75,10.0,SE,9.2,-,N/A,,Mostly Cloudy,130,2013-07-28 14:51:00
8:51 AM,91.9,63.0,38,29.75,10.0,SE,5.8,-,N/A,,Scattered Clouds,130,2013-07-28 15:51:00
9:51 AM,95.0,61.0,32,29.75,10.0,ESE,5.8,-,N/A,,Scattered Clouds,120,2013-07-28 16:51:00
10:51 AM,99.0,57.0,25,29.75,10.0,Variable,4.6,-,N/A,,Scattered Clouds,0,2013-07-28 17:51:00
11:51 AM,100.9,55.0,22,29.73,10.0,Calm,Calm,-,N/A,,Scattered Clouds,0,2013-07-28 18:51:00
12:51 PM,106.0,53.1,17,29.71,10.0,SSW,10.4,19.6,N/A,,Scattered Clouds,200,2013-07-28 19:51:00
1:51 PM,105.1,51.1,16,29.68,10.0,Variable,3.5,-,N/A,,Partly Cloudy,0,2013-07-28 20:51:00
2:51 PM,107.1,48.0,14,29.66,10.0,SSW,11.5,16.1,N/A,,Partly Cloudy,210,2013-07-28 21:51:00
3:51 PM,108.0,46.9,13,29.63,10.0,West,19.6,27.6,N/A,,Partly Cloudy,280,2013-07-28 22:51:00
4:51 PM,107.1,48.0,14,29.62,10.0,West,12.7,17.3,N/A,,Scattered Clouds,280,2013-07-28 23:51:00
5:51 PM,106.0,48.0,14,29.61,10.0,WNW,12.7,18.4,N/A,,Scattered Clouds,300,2013-07-29 00:51:00
6:51 PM,106.0,46.9,14,29.62,10.0,West,16.1,-,N/A,,Scattered Clouds,280,2013-07-29 01:51:00
7:51 PM,104.0,46.9,15,29.63,10.0,West,12.7,-,N/A,,Mostly Cloudy,280,2013-07-29 02:51:00
8:51 PM,100.9,48.0,17,29.66,10.0,West,11.5,-,N/A,,Mostly Cloudy,260,2013-07-29 03:51:00
9:51 PM,99.0,45.0,16,29.68,10.0,West,6.9,-,N/A,,Scattered Clouds,270,2013-07-29 04:51:00
10:51 PM,97.0,46.9,18,29.69,10.0,West,5.8,-,N/A,,Partly Cloudy,260,2013-07-29 05:51:00
11:51 PM,95.0,48.9,21,29.70,10.0,WSW,4.6,-,N/A,,Partly Cloudy,240,2013-07-29 06:51:00